Regional Weather Roundup
Issued by NWS

Home | Current Version | Previous Version | Graphics & Text | Print | Product List | Glossary On
Versions: 1 2 3 4 5 6 7 8 9 10 11 12 13 14 15 16 17 18 19 20 21 22 23 24 25 26 27 28 29 30 31 32 33 34 35 36 37 38 39 40 41 42 43 44 45 46 47 48 49 50
439
ASUS43 KLOT 080303
RWRIL

ILLINOIS REGIONAL WEATHER ROUNDUP
NATIONAL WEATHER SERVICE CHICAGO/ROMEOVILLE IL
900 PM CST WED DEC 07 2016

NOTE: "FAIR" INDICATES FEW OR NO CLOUDS BELOW 12,000 FEET WITH NO
SIGNIFICANT WEATHER AND/OR OBSTRUCTIONS TO VISIBILITY.

* THESE STATIONS ARE NOT UNDER NWS QUALITY CONTROL. THEY ALSO MAY NOT
  REPORT WEATHER SUCH AS PRECIPITATION OR FOG.

ILZ001-002-007-009-015-016-024-080400-
NORTHWEST ILLINOIS

CITY           SKY/WX    TMP DP  RH WIND       PRES   REMARKS
MOLINE         CLOUDY    25  12  58 W22G29    30.24R WCI  10
STERLING*      CLOUDY    23  16  74 W24G30    30.19F WCI   7
$$

ILZ003-004-008-010-011-017-018-080400-
NORTH CENTRAL ILLINOIS

CITY           SKY/WX    TMP DP  RH WIND       PRES   REMARKS
ROCKFORD       FLURRIES  24  15  68 W15       30.16F WCI  11
FREEPORT*      CLOUDY    22  14  70 W14G22    30.16F WCI  10
ROCHELLE*      CLOUDY    23  16  74 W20G28    30.17F WCI   9
$$

ILZ005-006-012>014-019>023-080400-
NORTHEAST ILLINOIS

CITY           SKY/WX    TMP DP  RH WIND       PRES   REMARKS
CHICAGO-OHARE  CLOUDY    22  13  68 W23G35    30.14R WCI   6
CHICAGO-MIDWAY CLOUDY    24  14  65 W15G32    30.16R WCI  11
AURORA         CLOUDY    24  15  68 W22       30.16S WCI   9
LANSING*       MOCLDY    24  19  80 W14G26    30.16R WCI  12
WAUKEGAN       CLOUDY    22  13  68 W7G18     30.10S WCI  13
DUPAGE AIRPORT CLOUDY    22  13  68 W18G28    30.14F WCI   7
KANKAKEE*      CLOUDY    26  18  73 W20G25    30.18F WCI  12
WHEELING       CLOUDY    22  13  68 W15G26    30.14F WCI   9
NORTHERLY ISL    N/A     24  15  68 W7          N/A  WCI  16
$$

LMZ740>746-080400-
SOUTHERN LAKE MICHIGAN

STATION/POSITION SKY/WX   TEMP    WIND        PRES    VSBY  WAVE
                          AIR SEA DIR/SP/G                  HT/PER
                          (F)     (DEG/KT/KT) (MB)    (MI)  (FT/S)
HARRISON CRIB              25     280/ 27/ 32   N/A
BURNHAM HARBOR             24     280/  8/ 21   N/A
CALUMET HARBOR             24     250/ 10/ 16 1020.3R
BURNS HARBOR               28     270/ 22/ 27 1021.0R
MICHIGAN CITY              27     240/ 29/ 33   N/A
$$

ILZ025>027-034>036-040-047-049-050-058-095>099-080400-
WEST-CENTRAL ILLINOIS

CITY           SKY/WX    TMP DP  RH WIND       PRES   REMARKS
QUINCY         PTCLDY    25  15  66 W14       30.32R WCI  13
GALESBURG*     CLOUDY    23  15  71 W17G23    30.26S WCI   9
MACOMB*        PTCLDY    24  15  68 W21       30.31R WCI   9
JACKSONVILLE*  PTCLDY    27  17  66 W15       30.30R WCI  15
$$

ILZ028>032-037-038-041>044-048-051>054-059>061-080400-
CENTRAL ILLINOIS

CITY           SKY/WX    TMP DP  RH WIND       PRES   REMARKS
BLOOMINGTON    CLOUDY    25  17  72 W24       30.22S WCI   9
DECATUR        CLEAR     28  18  66 NW12      30.24S WCI  18
PEORIA         MOCLDY    25  14  63 W12       30.26R WCI  14
SPRINGFIELD    CLEAR     28  18  66 W10       30.28R WCI  19
TAYLORVILLE    NOT AVBL
$$

ILZ033-039-045-046-055>057-062-063-080400-
EAST-CENTRAL ILLINOIS

CITY           SKY/WX    TMP DP  RH WIND       PRES   REMARKS
CHAMPAIGN      PTCLDY    28  20  71 W13       30.22S WCI  17
MATTOON        PTCLDY    29  20  69 NW14      30.23R WCI  18
PARIS*         CLEAR     29  25  84 W8        30.23R WCI  21
$$

ILZ079-100>102-080400-
SOUTHWEST ILLINOIS

CITY           SKY/WX    TMP DP  RH WIND       PRES   REMARKS
BELLEVILLE     CLEAR     34  19  55 NW12      30.29R WCI  25
CAHOKIA*       CLOUDY    34  16  47 NW16      30.31R WCI  24
SPARTA*        CLOUDY    34  22  60 W9        30.30S WCI  27
$$

ILZ064>066-069>071-074>076-080>082-084>086-088>090-092>094-080400-
SOUTH-CENTRAL ILLINOIS

CITY           SKY/WX    TMP DP  RH WIND       PRES   REMARKS
CARBONDALE     CLOUDY    35  22  58 NW7       30.29R WCI  29
CAIRO*         CLOUDY    37  24  60 N7        30.28S WCI  31
MARION           N/A     36  23  60 CALM      30.29R
CENTRALIA*     CLOUDY    34  24  68 W8        30.27R WCI  27
SALEM*         CLOUDY    34  22  61 W8        30.26S WCI  28
$$

ILZ067-068-072-073-078-083-087-091-080400-
SOUTHEAST ILLINOIS

CITY           SKY/WX    TMP DP  RH WIND       PRES   REMARKS
LAWRENCEVILLE  CLOUDY    34  24  67 NW8       30.25R WCI  27
HARRISBURG*    CLOUDY    35  26  67 NW7       30.28R WCI  29
ROBINSON*      CLOUDY    32  25  75 NW7       30.25S WCI  25
CARMI*         CLOUDY    34  26  72 NW9       30.26R WCI  26
$$

ABBREVIATIONS USED IN REMARKS
   TC - TEMPERATURE IN CELSIUS
  WCI - WIND CHILL INDEX
   HX - HEAT INDEX
  VSB - VISIBILITY
$$





USA.gov is the U.S. government's official web portal to all federal, state and local government web resources and services.